TimeEST,TemperatureF,Dew PointF,Humidity,Sea Level PressureIn,VisibilityMPH,Wind Direction,Wind SpeedMPH,Gust SpeedMPH,PrecipitationIn,Events,Conditions,WindDirDegrees,DateUTC
12:00 AM,35.2,25.7,68,30.20,-9999.0,WSW,19.6,31.1,N/A,,Unknown,250,2012-11-13 05:00:00
1:00 AM,35,27,62,30.21,,West,17.3,,,,,260,2012-11-13 06:00:00
1:00 AM,35.1,26.8,72,30.21,-9999.0,West,17.3,26.5,N/A,,Unknown,260,2012-11-13 06:00:00
2:00 AM,34.0,26.6,74,30.22,-9999.0,West,21.9,31.1,N/A,,Unknown,270,2012-11-13 07:00:00
3:00 AM,33.6,21.2,60,30.25,-9999.0,West,21.9,32.2,N/A,,Unknown,270,2012-11-13 08:00:00
4:00 AM,33.8,17.2,51,30.26,-9999.0,West,20.7,33.4,N/A,,Unknown,270,2012-11-13 09:00:00
5:00 AM,33.3,19.9,58,30.28,-9999.0,West,17.3,25.3,N/A,,Unknown,270,2012-11-13 10:00:00
6:00 AM,32.9,18.0,54,30.31,-9999.0,West,16.1,24.2,N/A,,Unknown,270,2012-11-13 11:00:00
7:00 AM,33,19,43,30.33,,West,15.0,,,,,280,2012-11-13 12:00:00
7:00 AM,32.9,18.9,56,30.33,-9999.0,West,15.0,23.0,N/A,,Unknown,280,2012-11-13 12:00:00
8:00 AM,33.1,19.8,58,30.36,-9999.0,West,12.7,-,N/A,,Unknown,270,2012-11-13 13:00:00
9:00 AM,33.1,19.6,58,30.38,-9999.0,West,12.7,-,N/A,,Unknown,270,2012-11-13 14:00:00
10:00 AM,33.4,19.9,58,30.40,-9999.0,West,10.4,-,N/A,,Unknown,270,2012-11-13 15:00:00
11:00 AM,33.4,21.9,63,30.43,-9999.0,West,10.4,-,N/A,,Unknown,260,2012-11-13 16:00:00
12:00 PM,34.5,21.9,60,30.43,-9999.0,West,8.1,-,N/A,,Unknown,260,2012-11-13 17:00:00
1:00 PM,35,22,46,30.42,,WSW,8.1,,,,,250,2012-11-13 18:00:00
1:00 PM,34.9,21.9,59,30.42,-9999.0,WSW,8.1,-,N/A,,Unknown,250,2012-11-13 18:00:00
2:00 PM,34.9,23.0,62,30.43,-9999.0,WSW,9.2,-,N/A,,Unknown,250,2012-11-13 19:00:00
3:00 PM,35.1,22.5,60,30.43,-9999.0,WSW,10.4,-,N/A,,Unknown,240,2012-11-13 20:00:00
4:00 PM,35.2,22.8,61,30.45,-9999.0,WSW,10.4,-,N/A,,Unknown,250,2012-11-13 21:00:00
5:00 PM,35.2,23.4,62,30.46,-9999.0,SW,6.9,-,N/A,,Unknown,230,2012-11-13 22:00:00
6:00 PM,35.4,23.2,61,30.47,-9999.0,SSW,6.9,-,N/A,,Unknown,210,2012-11-13 23:00:00
7:00 PM,35,23,49,30.48,,SSW,5.8,,,,,200,2012-11-14 00:00:00
7:00 PM,35.2,23.0,61,30.48,-9999.0,SSW,5.8,-,N/A,,Unknown,200,2012-11-14 00:00:00
8:00 PM,33.8,22.8,64,30.50,-9999.0,SSE,5.8,-,N/A,,Unknown,150,2012-11-14 01:00:00
9:00 PM,33.8,21.7,61,30.51,-9999.0,SSE,8.1,-,N/A,,Unknown,160,2012-11-14 02:00:00
10:00 PM,33.8,21.6,61,30.53,-9999.0,SSE,6.9,-,N/A,,Unknown,160,2012-11-14 03:00:00
11:00 PM,34.2,22.6,63,30.53,-9999.0,South,6.9,-,N/A,,Unknown,170,2012-11-14 04:00:00